Time,TemperatureF,DewpointF,PressureIn,WindDirection,WindDirectionDegrees,WindSpeedMPH,WindSpeedGustMPH,Humidity,HourlyPrecipIn,Conditions,Clouds,dailyrainin,SoftwareType,DateUTC
2013-10-14 00:14:00,59.8,59.0,30.23,WSW,243,2.0,2.0,97,0.08,,,0.00,weatherlink.com 1.10,2013-10-14 04:14:00,
2013-10-14 00:29:00,59.7,59.0,30.23,West,259,0.0,3.0,97,0.06,,,0.01,weatherlink.com 1.10,2013-10-14 04:29:00,
2013-10-14 00:44:00,59.6,59.0,30.23,West,265,0.0,2.0,97,0.02,,,0.02,weatherlink.com 1.10,2013-10-14 04:44:00,
2013-10-14 00:59:00,59.5,59.0,30.23,South,171,1.0,2.0,97,0.02,,,0.02,weatherlink.com 1.10,2013-10-14 04:59:00,
2013-10-14 01:14:00,59.3,59.0,30.23,SSE,157,2.0,3.0,97,0.03,,,0.03,weatherlink.com 1.10,2013-10-14 05:14:00,
2013-10-14 01:29:00,59.0,58.0,30.23,South,170,2.0,5.0,97,0.04,,,0.05,weatherlink.com 1.10,2013-10-14 05:29:00,
2013-10-14 01:44:00,58.9,58.0,30.23,WSW,257,1.0,3.0,97,0.05,,,0.07,weatherlink.com 1.10,2013-10-14 05:44:00,
2013-10-14 01:59:00,58.7,58.0,30.23,WSW,245,0.0,3.0,97,0.06,,,0.08,weatherlink.com 1.10,2013-10-14 05:59:00,
2013-10-14 02:14:00,58.6,58.0,30.23,South,182,0.0,3.0,97,0.09,,,0.12,weatherlink.com 1.10,2013-10-14 06:14:00,
2013-10-14 02:29:00,58.4,58.0,30.23,WSW,257,0.0,1.0,97,0.10,,,0.15,weatherlink.com 1.10,2013-10-14 06:29:00,
2013-10-14 02:44:00,58.2,57.0,30.23,WSW,251,1.0,2.0,97,0.08,,,0.15,weatherlink.com 1.10,2013-10-14 06:44:00,
2013-10-14 02:59:00,58.1,57.0,30.23,WSW,252,0.0,3.0,97,0.09,,,0.17,weatherlink.com 1.10,2013-10-14 06:59:00,
2013-10-14 03:14:00,58.0,57.0,30.23,WSW,255,0.0,3.0,97,0.07,,,0.19,weatherlink.com 1.10,2013-10-14 07:14:00,
2013-10-14 03:29:00,57.9,57.0,30.24,WSW,255,2.0,6.0,97,0.04,,,0.19,weatherlink.com 1.10,2013-10-14 07:29:00,
2013-10-14 03:44:00,57.7,57.0,30.24,West,264,2.0,5.0,97,0.04,,,0.19,weatherlink.com 1.10,2013-10-14 07:44:00,
2013-10-14 03:59:00,57.7,57.0,30.24,WSW,252,2.0,4.0,98,0.03,,,0.20,weatherlink.com 1.10,2013-10-14 07:59:00,
2013-10-14 04:14:00,57.7,57.0,30.25,WNW,293,3.0,7.0,98,0.02,,,0.21,weatherlink.com 1.10,2013-10-14 08:14:00,
2013-10-14 04:29:00,57.4,57.0,30.25,NNW,328,1.0,6.0,97,0.02,,,0.21,weatherlink.com 1.10,2013-10-14 08:29:00,
2013-10-14 04:44:00,57.1,56.0,30.25,NW,316,1.0,6.0,97,0.02,,,0.21,weatherlink.com 1.10,2013-10-14 08:44:00,
2013-10-14 04:59:00,56.8,56.0,30.25,NW,315,1.0,3.0,97,0.02,,,0.22,weatherlink.com 1.10,2013-10-14 08:59:00,
2013-10-14 05:14:00,56.6,56.0,30.26,WNW,303,0.0,3.0,97,0.03,,,0.24,weatherlink.com 1.10,2013-10-14 09:14:00,
2013-10-14 05:29:00,56.5,56.0,30.25,WNW,300,2.0,3.0,97,0.03,,,0.24,weatherlink.com 1.10,2013-10-14 09:29:00,
2013-10-14 05:44:00,56.4,56.0,30.26,NW,309,2.0,4.0,97,0.03,,,0.24,weatherlink.com 1.10,2013-10-14 09:44:00,
2013-10-14 05:59:00,56.3,56.0,30.26,WNW,299,0.0,2.0,98,0.02,,,0.24,weatherlink.com 1.10,2013-10-14 09:59:00,
2013-10-14 06:14:00,56.1,56.0,30.26,WNW,295,2.0,4.0,98,0.00,,,0.24,weatherlink.com 1.10,2013-10-14 10:14:00,
2013-10-14 06:29:00,55.9,55.0,30.26,NW,309,1.0,5.0,97,0.01,,,0.25,weatherlink.com 1.10,2013-10-14 10:29:00,
2013-10-14 06:44:00,55.8,55.0,30.27,NW,309,2.0,4.0,98,0.01,,,0.25,weatherlink.com 1.10,2013-10-14 10:44:00,
2013-10-14 06:59:00,55.3,55.0,30.27,NW,323,1.0,4.0,97,0.01,,,0.25,weatherlink.com 1.10,2013-10-14 10:59:00,
2013-10-14 07:14:00,55.3,55.0,30.27,WNW,289,2.0,5.0,97,0.01,,,0.25,weatherlink.com 1.10,2013-10-14 11:14:00,
2013-10-14 07:29:00,54.9,54.0,30.27,West,281,2.0,7.0,97,0.00,,,0.25,weatherlink.com 1.10,2013-10-14 11:29:00,
2013-10-14 07:44:00,54.5,54.0,30.28,WNW,303,4.0,8.0,97,0.01,,,0.26,weatherlink.com 1.10,2013-10-14 11:44:00,
2013-10-14 07:59:00,54.3,54.0,30.28,WNW,302,3.0,5.0,97,0.01,,,0.26,weatherlink.com 1.10,2013-10-14 11:59:00,
2013-10-14 08:14:00,54.3,54.0,30.29,WNW,288,2.0,7.0,97,0.01,,,0.26,weatherlink.com 1.10,2013-10-14 12:14:00,
2013-10-14 08:29:00,54.3,54.0,30.29,WNW,303,3.0,6.0,97,0.01,,,0.26,weatherlink.com 1.10,2013-10-14 12:29:00,
2013-10-14 08:45:00,54.1,53.0,30.30,WNW,293,1.0,4.0,96,0.00,,,0.26,weatherlink.com 1.10,2013-10-14 12:45:00,
2013-10-14 09:00:00,54.2,53.0,30.30,WNW,291,2.0,4.0,96,0.00,,,0.26,weatherlink.com 1.10,2013-10-14 13:00:00,
2013-10-14 09:15:00,54.1,53.0,30.30,West,273,2.0,4.0,96,0.00,,,0.26,weatherlink.com 1.10,2013-10-14 13:15:00,
2013-10-14 09:30:00,54.1,53.0,30.30,WNW,300,3.0,3.0,97,0.01,,,0.27,weatherlink.com 1.10,2013-10-14 13:30:00,
2013-10-14 09:45:00,54.2,53.0,30.31,West,276,2.0,5.0,97,0.01,,,0.27,weatherlink.com 1.10,2013-10-14 13:45:00,
2013-10-14 10:00:00,54.5,54.0,30.31,WSW,258,2.0,6.0,97,0.01,,,0.27,weatherlink.com 1.10,2013-10-14 14:00:00,
2013-10-14 10:15:00,54.7,54.0,30.30,West,267,4.0,5.0,97,0.01,,,0.27,weatherlink.com 1.10,2013-10-14 14:15:00,
2013-10-14 10:30:00,54.9,54.0,30.30,WSW,257,2.0,5.0,96,0.00,,,0.27,weatherlink.com 1.10,2013-10-14 14:30:00,
2013-10-14 10:45:00,55.3,54.0,30.30,West,276,5.0,6.0,96,0.00,,,0.27,weatherlink.com 1.10,2013-10-14 14:45:00,
2013-10-14 11:00:00,55.5,54.0,30.30,WNW,300,4.0,6.0,95,0.00,,,0.27,weatherlink.com 1.10,2013-10-14 15:00:00,
2013-10-14 11:15:00,55.9,55.0,30.30,WNW,292,4.0,6.0,95,0.00,,,0.27,weatherlink.com 1.10,2013-10-14 15:15:00,
2013-10-14 11:30:00,56.3,55.0,30.30,WNW,298,3.0,7.0,94,0.00,,,0.27,weatherlink.com 1.10,2013-10-14 15:30:00,
2013-10-14 11:45:00,56.7,55.0,30.30,WNW,288,4.0,5.0,92,0.00,,,0.27,weatherlink.com 1.10,2013-10-14 15:45:00,
2013-10-14 12:00:00,57.0,55.0,30.30,WNW,302,3.0,6.0,92,0.00,,,0.27,weatherlink.com 1.10,2013-10-14 16:00:00,
2013-10-14 12:15:00,57.2,55.0,30.30,West,279,4.0,6.0,91,0.00,,,0.27,weatherlink.com 1.10,2013-10-14 16:15:00,
2013-10-14 12:30:00,57.2,54.0,30.29,WNW,286,4.0,5.0,90,0.00,,,0.27,weatherlink.com 1.10,2013-10-14 16:30:00,
2013-10-14 12:45:00,57.6,54.0,30.29,WNW,303,4.0,5.0,88,0.00,,,0.27,weatherlink.com 1.10,2013-10-14 16:45:00,
2013-10-14 13:00:00,58.2,55.0,30.28,NW,309,2.0,5.0,89,0.00,,,0.27,weatherlink.com 1.10,2013-10-14 17:00:00,
2013-10-14 13:15:00,58.8,55.0,30.27,West,278,5.0,5.0,86,0.00,,,0.27,weatherlink.com 1.10,2013-10-14 17:15:00,
2013-10-14 13:31:00,58.6,54.0,30.27,WNW,298,4.0,5.0,85,0.00,,,0.27,weatherlink.com 1.10,2013-10-14 17:31:00,
2013-10-14 13:45:00,58.3,54.0,30.27,NW,307,1.0,6.0,84,0.00,,,0.27,weatherlink.com 1.10,2013-10-14 17:45:00,
2013-10-14 14:00:00,58.3,55.0,30.26,NW,306,1.0,3.0,88,0.00,,,0.27,weatherlink.com 1.10,2013-10-14 18:00:00,
2013-10-14 14:15:00,59.6,54.0,30.26,NW,314,0.0,5.0,83,0.00,,,0.27,weatherlink.com 1.10,2013-10-14 18:15:00,
2013-10-14 14:30:00,61.3,54.0,30.26,WNW,301,1.0,5.0,78,0.00,,,0.27,weatherlink.com 1.10,2013-10-14 18:30:00,
2013-10-14 14:45:00,60.7,55.0,30.26,West,277,3.0,6.0,80,0.00,,,0.27,weatherlink.com 1.10,2013-10-14 18:45:00,
2013-10-14 15:00:00,61.1,55.0,30.25,NNE,25,0.0,3.0,79,0.00,,,0.27,weatherlink.com 1.10,2013-10-14 19:00:00,
2013-10-14 15:15:00,61.6,54.0,30.25,NNW,333,1.0,4.0,77,0.00,,,0.27,weatherlink.com 1.10,2013-10-14 19:15:00,
2013-10-14 15:30:00,61.4,54.0,30.25,WNW,286,3.0,5.0,76,0.00,,,0.27,weatherlink.com 1.10,2013-10-14 19:30:00,
2013-10-14 15:45:00,61.2,54.0,30.25,NW,311,0.0,2.0,77,0.00,,,0.27,weatherlink.com 1.10,2013-10-14 19:45:00,
2013-10-14 16:00:00,60.7,55.0,30.25,NNW,344,0.0,1.0,81,0.00,,,0.27,weatherlink.com 1.10,2013-10-14 20:00:00,
2013-10-14 16:15:00,60.2,55.0,30.25,WNW,298,1.0,2.0,82,0.00,,,0.27,weatherlink.com 1.10,2013-10-14 20:15:00,
2013-10-14 16:30:00,59.6,54.0,30.25,NW,307,0.0,4.0,81,0.00,,,0.27,weatherlink.com 1.10,2013-10-14 20:30:00,
2013-10-14 16:45:00,59.3,52.0,30.25,NW,326,1.0,2.0,78,0.00,,,0.27,weatherlink.com 1.10,2013-10-14 20:45:00,
2013-10-14 17:00:00,59.1,51.0,30.25,NW,324,0.0,2.0,75,0.00,,,0.27,weatherlink.com 1.10,2013-10-14 21:00:00,
2013-10-14 17:15:00,59.1,52.0,30.25,NW,324,1.0,1.0,77,0.00,,,0.27,weatherlink.com 1.10,2013-10-14 21:15:00,
2013-10-14 17:30:00,58.4,49.0,30.26,NNW,332,0.0,2.0,72,0.00,,,0.27,weatherlink.com 1.10,2013-10-14 21:30:00,
2013-10-14 17:45:00,57.9,50.0,30.26,NNW,332,0.0,1.0,76,0.00,,,0.27,weatherlink.com 1.10,2013-10-14 21:45:00,
2013-10-14 18:00:00,57.5,51.0,30.27,NNW,332,0.0,1.0,79,0.00,,,0.27,weatherlink.com 1.10,2013-10-14 22:00:00,
2013-10-14 18:15:00,57.0,51.0,30.27,NNW,332,0.0,0.0,81,0.00,,,0.27,weatherlink.com 1.10,2013-10-14 22:15:00,
2013-10-14 18:30:00,56.7,51.0,30.27,NNW,332,0.0,0.0,81,0.00,,,0.27,weatherlink.com 1.10,2013-10-14 22:30:00,
2013-10-14 18:45:00,56.1,51.0,30.27,NNW,332,0.0,1.0,82,0.00,,,0.27,weatherlink.com 1.10,2013-10-14 22:45:00,
2013-10-14 19:00:00,55.3,50.0,30.27,NNW,332,0.0,0.0,82,0.00,,,0.27,weatherlink.com 1.10,2013-10-14 23:00:00,
2013-10-14 19:15:00,53.9,51.0,30.28,NNW,332,0.0,0.0,88,0.00,,,0.27,weatherlink.com 1.10,2013-10-14 23:15:00,
2013-10-14 19:30:00,52.6,49.0,30.28,NNW,332,0.0,0.0,87,0.00,,,0.27,weatherlink.com 1.10,2013-10-14 23:30:00,
2013-10-14 19:45:00,52.1,49.0,30.28,NNW,332,1.0,1.0,89,0.00,,,0.27,weatherlink.com 1.10,2013-10-14 23:45:00,
2013-10-14 20:00:00,51.3,49.0,30.28,NNW,332,0.0,1.0,92,0.00,,,0.27,weatherlink.com 1.10,2013-10-15 00:00:00,
2013-10-14 20:15:00,51.2,49.0,30.27,NNW,333,0.0,1.0,92,0.00,,,0.27,weatherlink.com 1.10,2013-10-15 00:15:00,
2013-10-14 20:30:00,50.5,49.0,30.28,NNW,332,0.0,1.0,93,0.00,,,0.27,weatherlink.com 1.10,2013-10-15 00:30:00,
2013-10-14 20:45:00,50.1,49.0,30.28,NNW,332,0.0,0.0,94,0.00,,,0.27,weatherlink.com 1.10,2013-10-15 00:45:00,
2013-10-14 21:00:00,49.3,48.0,30.28,NNW,332,1.0,1.0,95,0.00,,,0.27,weatherlink.com 1.10,2013-10-15 01:00:00,
2013-10-14 21:15:00,48.6,47.0,30.28,NNW,332,0.0,1.0,95,0.00,,,0.27,weatherlink.com 1.10,2013-10-15 01:15:00,
2013-10-14 21:30:00,48.2,47.0,30.29,NNW,332,0.0,0.0,96,0.00,,,0.27,weatherlink.com 1.10,2013-10-15 01:30:00,
2013-10-14 21:45:00,48.0,47.0,30.29,NNW,332,0.0,1.0,97,0.00,,,0.27,weatherlink.com 1.10,2013-10-15 01:45:00,
2013-10-14 22:00:00,48.1,47.0,30.29,NNW,332,1.0,1.0,97,0.00,,,0.27,weatherlink.com 1.10,2013-10-15 02:00:00,
2013-10-14 22:15:00,47.9,47.0,30.29,NW,325,1.0,1.0,97,0.00,,,0.27,weatherlink.com 1.10,2013-10-15 02:15:00,
2013-10-14 22:30:00,47.7,47.0,30.28,NW,326,0.0,1.0,97,0.00,,,0.27,weatherlink.com 1.10,2013-10-15 02:30:00,
2013-10-14 22:46:00,46.9,46.0,30.29,NW,326,0.0,0.0,97,0.00,,,0.27,weatherlink.com 1.10,2013-10-15 02:46:00,
2013-10-14 23:01:00,46.6,46.0,30.28,NW,326,0.0,1.0,98,0.00,,,0.27,weatherlink.com 1.10,2013-10-15 03:01:00,
2013-10-14 23:16:00,45.7,45.0,30.28,NW,326,0.0,0.0,97,0.00,,,0.27,weatherlink.com 1.10,2013-10-15 03:16:00,
2013-10-14 23:31:00,45.0,44.0,30.27,NW,326,0.0,0.0,97,0.00,,,0.27,weatherlink.com 1.10,2013-10-15 03:31:00,
2013-10-14 23:46:00,45.4,45.0,30.27,NW,326,0.0,1.0,98,0.00,,,0.27,weatherlink.com 1.10,2013-10-15 03:46:00,